GW3691 Weather Reports


Display with metric or nautical units.
time (UTC)temp
F
wind
direction
speed
MPH
gust
MPH
rain 1hr
in
rain 24hr
in
rain mn
in
humidity
%
barometer
mb
20260506044902 62 151 0.0 0.0 0.00 0.00 0.00 90 1021.0
20260506044400 62 151 0.0 0.0 0.00 0.00 0.00 90 1020.9
20260506043857 62 150 0.0 0.0 0.00 0.00 0.00 90 1020.8
20260506043354 62 150 0.0 0.0 0.00 0.00 0.00 90 1020.6
20260506042852 62 150 0.0 0.0 0.00 0.00 0.00 89 1021.0
20260506042351 63 150 0.0 0.0 0.00 0.00 0.00 89 1020.7
20260506041849 63 150 0.0 0.0 0.00 0.00 0.00 89 1020.9
20260506041346 63 150 0.0 0.0 0.00 0.00 0.00 89 1020.7
20260506040843 63 150 0.0 0.0 0.00 0.00 0.00 89 1020.6
20260506040340 63 150 0.0 0.0 0.00 0.00 0.00 89 1020.6
20260506035836 63 150 0.0 0.0 0.00 0.00 0.00 88 1020.5
20260506035334 63 150 0.0 0.0 0.00 0.00 0.00 88 1020.5
20260506034831 63 150 0.0 0.0 0.00 0.00 0.00 88 1020.7
20260506034328 63 150 0.0 0.0 0.00 0.00 0.00 87 1020.5
20260506033825 63 150 0.0 0.0 0.00 0.00 0.00 87 1020.3
20260506033322 63 150 0.0 0.0 0.00 0.00 0.00 87 1020.5
20260506032819 63 150 0.0 0.0 0.00 0.00 0.00 87 1020.4
20260506032316 63 150 0.0 0.0 0.00 0.00 0.00 87 1020.2
20260506031812 64 150 0.0 0.0 0.00 0.00 0.00 87 1020.0
20260506031310 64 150 0.0 0.0 0.00 0.00 0.00 87 1020.2
20260506030807 63 150 0.0 0.0 0.00 0.00 0.00 86 1020.1
20260506030305 64 150 0.0 0.0 0.00 0.00 0.00 86 1020.0
20260506025802 64 150 0.0 0.0 0.00 0.00 0.00 86 1020.0
20260506025258 64 150 0.0 0.0 0.00 0.00 0.00 85 1020.1
20260506024755 64 150 0.0 0.0 0.00 0.00 0.00 85 1020.2
20260506024252 64 150 0.0 0.0 0.00 0.00 0.00 85 1020.1
20260506023748 64 150 0.0 0.0 0.00 0.00 0.00 84 1019.9
20260506023245 64 150 0.0 0.0 0.00 0.00 0.00 84 1019.8
20260506022742 64 150 0.0 0.0 0.00 0.00 0.00 84 1020.1
20260506022240 65 150 0.0 0.0 0.00 0.00 0.00 83 1020.1
20260506021738 65 150 0.0 0.0 0.00 0.00 0.00 83 1020.1
20260506021234 65 150 0.0 0.0 0.00 0.00 0.00 83 1020.0
20260506020731 65 150 0.0 0.0 0.00 0.00 0.00 82 1020.2
20260506020229 65 150 0.0 0.0 0.00 0.00 0.00 82 1020.2
20260506015726 66 150 0.0 0.0 0.00 0.00 0.00 82 1020.2
20260506015224 66 150 0.0 0.0 0.00 0.00 0.00 81 1020.1
20260506014721 66 150 0.0 0.0 0.00 0.00 0.00 80 1019.9
20260506014217 66 150 0.0 0.0 0.00 0.00 0.00 79 1020.0
20260506013714 66 150 0.0 0.0 0.00 0.00 0.00 78 1020.1
20260506013211 66 150 0.0 0.0 0.00 0.00 0.00 77 1020.1
20260506012707 67 149 0.0 0.0 0.00 0.00 0.00 77 1019.8
20260506012205 67 149 0.0 0.0 0.00 0.00 0.00 76 1019.9
20260506011702 67 149 0.0 0.0 0.00 0.00 0.00 75 1020.0
20260506011158 68 149 0.0 0.0 0.00 0.00 0.00 75 1020.0
20260506010657 68 149 0.0 0.0 0.00 0.00 0.00 74 1020.2
20260506010153 68 149 0.0 0.0 0.00 0.00 0.00 74 1019.9
20260506005650 68 149 0.0 0.0 0.00 0.00 0.00 73 1019.7
20260506005147 69 149 0.0 0.0 0.00 0.00 0.00 73 1019.8
20260506004643 69 149 0.0 0.0 0.00 0.00 0.00 73 1019.7
20260506004141 69 148 0.0 0.0 0.00 0.00 0.00 73 1019.9
20260506003637 69 147 0.0 0.0 0.00 0.00 0.00 72 1019.4
20260506003133 69 148 0.0 0.0 0.00 0.00 0.00 72 1019.6
20260506002629 70 148 0.0 0.0 0.00 0.00 0.00 72 1019.3
20260506002125 70 147 0.0 0.0 0.00 0.00 0.00 72 1019.4
20260506001621 71 144 0.0 0.0 0.00 0.00 0.00 71 1019.5
20260506001119 71 149 0.0 0.0 0.00 0.00 0.00 69 1019.3
20260506000616 72 150 0.0 0.0 0.00 0.00 0.00 69 1019.4
20260506000113 72 151 0.0 0.0 0.00 0.00 0.00 68 1019.4
20260505235611 73 160 0.0 0.0 0.00 0.00 0.00 66 1019.4
20260505235108 73 154 0.0 1.0 0.00 0.00 0.00 64 1019.3
20260505234605 73 152 0.0 0.0 0.00 0.00 0.00 63 1019.5
20260505234101 74 148 0.0 1.0 0.00 0.00 0.00 63 1019.3
20260505233559 74 143 0.0 0.0 0.00 0.00 0.00 63 1019.2
20260505233056 74 75 2.0 2.0 0.00 0.00 0.00 62 1019.3
20260505232554 75 152 0.0 0.0 0.00 0.00 0.00 62 1019.4
20260505232051 75 158 1.0 1.0 0.00 0.00 0.00 61 1019.6
20260505231548 76 104 0.0 1.0 0.00 0.00 0.00 59 1019.3
20260505231047 77 131 1.0 1.0 0.00 0.00 0.00 58 1019.2
20260505230544 76 77 1.0 2.0 0.00 0.00 0.00 59 1019.6
20260505230040 76 145 1.0 1.0 0.00 0.00 0.00 58 1019.5
20260505225537 76 157 2.0 2.0 0.00 0.00 0.00 59 1019.4
20260505225033 77 100 4.0 6.0 0.00 0.00 0.00 59 1019.6
20260505224530 77 136 1.0 2.0 0.00 0.00 0.00 58 1019.5
20260505224028 78 191 2.0 3.0 0.00 0.00 0.00 57 1019.3
20260505223525 78 155 0.0 0.0 0.00 0.00 0.00 57 1019.5
20260505223021 78 158 0.0 1.0 0.00 0.00 0.00 56 1019.6
20260505222517 78 172 1.0 1.0 0.00 0.00 0.00 56 1019.5
20260505222013 78 152 1.0 2.0 0.00 0.00 0.00 57 1019.3
20260505221511 79 119 1.0 1.0 0.00 0.00 0.00 56 1019.5
20260505221007 80 165 3.0 5.0 0.00 0.00 0.00 54 1019.4
20260505220504 80 99 3.0 3.0 0.00 0.00 0.00 53 1019.5
20260505220002 81 141 1.0 2.0 0.00 0.00 0.00 52 1019.6
20260505215500 80 170 0.0 1.0 0.00 0.00 0.00 52 1019.6
20260505214957 80 156 1.0 1.0 0.00 0.00 0.00 52 1019.5
20260505214455 80 287 2.0 3.0 0.00 0.00 0.00 52 1019.6
20260505213952 80 163 1.0 1.0 0.00 0.00 0.00 49 1019.7
20260505213450 80 166 0.0 1.0 0.00 0.00 0.00 53 1019.6
20260505212946 79 158 0.0 1.0 0.00 0.00 0.00 51 1019.6
20260505212443 80 115 3.0 3.0 0.00 0.00 0.00 49 1019.7
20260505211939 81 142 1.0 2.0 0.00 0.00 0.00 47 1019.5
20260505211437 82 174 0.0 1.0 0.00 0.00 0.00 48 1019.6
20260505210933 80 138 2.0 3.0 0.00 0.00 0.00 50 1019.6
20260505210430 80 91 1.0 2.0 0.00 0.00 0.00 50 1019.8
20260505205927 80 140 0.0 1.0 0.00 0.00 0.00 52 1019.8
20260505205426 81 138 1.0 2.0 0.00 0.00 0.00 53 1019.6
20260505204922 82 171 0.0 1.0 0.00 0.00 0.00 53 1019.7
20260505204420 81 116 2.0 3.0 0.00 0.00 0.00 53 1019.6
20260505203917 81 115 1.0 2.0 0.00 0.00 0.00 52 1019.6
20260505203413 81 92 5.0 7.0 0.00 0.00 0.00 49 1019.8
20260505202910 80 126 2.0 3.0 0.00 0.00 0.00 52 1019.7
20260505202406 82 117 1.0 2.0 0.00 0.00 0.00 50 1019.6
20260505201902 82 122 1.0 1.0 0.00 0.00 0.00 51 1019.8
20260505201400 81 148 0.0 0.0 0.00 0.00 0.00 52 1019.8
20260505200858 81 85 5.0 7.0 0.00 0.00 0.00 53 1019.7
20260505200354 82 77 0.0 0.0 0.00 0.00 0.00 55 1019.8
20260505195850 82 154 1.0 2.0 0.00 0.00 0.00 53 1019.9
20260505195348 80 168 0.0 0.0 0.00 0.00 0.00 55 1019.7
20260505194844 80 78 4.0 7.0 0.00 0.00 0.00 54 1019.9
20260505194342 82 93 3.0 5.0 0.00 0.00 0.00 50 1020.1
20260505193837 82 65 2.0 5.0 0.00 0.00 0.00 50 1020.4
20260505193335 81 148 1.0 1.0 0.00 0.00 0.00 53 1020.2
20260505192833 82 120 4.0 8.0 0.00 0.00 0.00 50 1020.3
20260505192331 81 119 1.0 1.0 0.00 0.00 0.00 54 1020.3
20260505191828 83 124 1.0 2.0 0.00 0.00 0.00 51 1020.3
20260505191327 82 172 0.0 1.0 0.00 0.00 0.00 51 1020.5
20260505190823 81 139 0.0 0.0 0.00 0.00 0.00 51 1020.3
20260505190318 82 188 3.0 6.0 0.00 0.00 0.00 50 1020.3
20260505185814 82 141 1.0 1.0 0.00 0.00 0.00 49 1020.4
20260505185311 82 127 2.0 3.0 0.00 0.00 0.00 52 1020.5
20260505184807 82 169 1.0 1.0 0.00 0.00 0.00 54 1020.6
20260505184304 83 101 0.0 2.0 0.00 0.00 0.00 52 1020.8
20260505183801 81 158 1.0 1.0 0.00 0.00 0.00 54 1020.7
20260505183258 82 171 0.0 0.0 0.00 0.00 0.00 53 1020.7
20260505182755 81 160 0.0 0.0 0.00 0.00 0.00 54 1020.6
20260505182251 82 82 6.0 9.0 0.00 0.00 0.00 51 1020.4
20260505181748 83 71 2.0 6.0 0.00 0.00 0.00 54 1020.7
20260505181246 83 94 0.0 0.0 0.00 0.00 0.00 56 1020.6
20260505180742 83 126 1.0 2.0 0.00 0.00 0.00 53 1020.8
20260505180238 82 65 0.0 1.0 0.00 0.00 0.00 55 1020.8
20260505175735 81 117 4.0 6.0 0.00 0.00 0.00 53 1020.8
20260505175232 82 88 2.0 2.0 0.00 0.00 0.00 53 1020.9
20260505174728 81 100 2.0 3.0 0.00 0.00 0.00 57 1021.0
20260505174225 82 132 3.0 3.0 0.00 0.00 0.00 54 1020.9
20260505173721 82 171 0.0 0.0 0.00 0.00 0.00 56 1020.8
20260505173218 82 125 2.0 5.0 0.00 0.00 0.00 52 1021.0
20260505172715 83 348 0.0 1.0 0.00 0.00 0.00 54 1021.0
20260505172212 83 129 0.0 0.0 0.00 0.00 0.00 51 1021.1
20260505171707 82 83 0.0 0.0 0.00 0.00 0.00 55 1021.1
20260505171204 81 56 1.0 3.0 0.00 0.00 0.00 57 1021.2
20260505170701 80 129 0.0 1.0 0.00 0.00 0.00 59 1020.9
20260505170158 81 124 1.0 2.0 0.00 0.00 0.00 56 1021.1
20260505165657 80 140 0.0 0.0 0.00 0.00 0.00 60 1021.3
20260505165154 80 138 0.0 0.0 0.00 0.00 0.00 55 1021.2
20260505164649 79 142 0.0 0.0 0.00 0.00 0.00 58 1021.2
20260505164147 81 142 0.0 0.0 0.00 0.00 0.00 56 1021.4
20260505163645 81 144 0.0 0.0 0.00 0.00 0.00 57 1021.5
20260505163143 80 168 0.0 0.0 0.00 0.00 0.00 58 1021.7
20260505162640 80 140 1.0 1.0 0.00 0.00 0.00 56 1021.5
20260505162137 80 16 1.0 3.0 0.00 0.00 0.00 56 1021.4
20260505161634 81 107 3.0 3.0 0.00 0.00 0.00 54 1021.2
20260505161131 80 16 0.0 0.0 0.00 0.00 0.00 55 1021.5
20260505160629 80 95 3.0 6.0 0.00 0.00 0.00 56 1021.3
20260505160126 81 157 0.0 0.0 0.00 0.00 0.00 56 1021.2
20260505153106 82 159 0.0 0.0 0.00 0.00 0.00 57 1021.2
20260505152602 81 89 0.0 1.0 0.00 0.00 0.00 59 1021.0
20260505152058 80 158 0.0 0.0 0.00 0.00 0.00 59 1021.1
20260505151553 80 154 0.0 1.0 0.00 0.00 0.00 59 1021.4
20260505151051 80 155 0.0 0.0 0.00 0.00 0.00 59 1021.0
20260505150547 80 165 0.0 0.0 0.00 0.00 0.00 58 1021.2
20260505140513 79 147 0.0 0.0 0.00 0.00 0.00 58 1020.7
20260505124932 75 130 0.0 0.0 0.00 0.00 0.00 74 1020.5
20260505124429 73 143 0.0 0.0 0.00 0.00 0.00 76 1020.5
20260505123925 71 159 0.0 0.0 0.00 0.00 0.00 78 1020.4
20260505123421 69 159 0.0 0.0 0.00 0.00 0.00 82 1020.4
20260505122917 68 159 0.0 0.0 0.00 0.00 0.00 84 1020.7
20260505122415 67 159 0.0 0.0 0.00 0.00 0.00 85 1020.4
20260505121911 66 159 0.0 0.0 0.00 0.00 0.00 88 1020.4
20260505121408 66 160 0.0 0.0 0.00 0.00 0.00 91 1020.2
20260505120904 65 160 0.0 0.0 0.00 0.00 0.00 93 1020.3
20260505120401 63 160 0.0 0.0 0.00 0.00 0.00 94 1020.1
20260505115859 62 161 0.0 0.0 0.00 0.00 0.00 95 1020.2
20260505115357 60 162 0.0 0.0 0.00 0.00 0.00 95 1020.4
20260505114855 59 162 0.0 0.0 0.00 0.00 0.00 96 1020.4
20260505114351 59 163 0.0 0.0 0.00 0.00 0.00 96 1020.3
20260505113847 58 161 0.0 0.0 0.00 0.00 0.00 96 1020.3
20260505113344 58 162 0.0 0.0 0.00 0.00 0.00 96 1020.2
20260505112839 57 161 0.0 0.0 0.00 0.00 0.00 96 1020.2
20260505112337 57 158 0.0 0.0 0.00 0.00 0.00 96 1019.8
20260505111833 57 149 0.0 0.0 0.00 0.00 0.00 96 1019.8
20260505111328 56 148 0.0 0.0 0.00 0.00 0.00 96 1019.9
20260505110825 56 149 0.0 0.0 0.00 0.00 0.00 96 1019.8
20260505110322 56 149 0.0 0.0 0.00 0.00 0.00 96 1019.8
20260505101756 56 148 0.0 0.0 0.00 0.00 0.00 95 1019.5
20260505101252 56 148 0.0 0.0 0.00 0.00 0.00 95 1019.6
20260505100748 56 148 0.0 0.0 0.00 0.00 0.00 95 1019.4
20260505100245 56 148 0.0 0.0 0.00 0.00 0.00 95 1019.4
20260505095741 56 148 0.0 0.0 0.00 0.00 0.00 95 1019.2
20260505095239 56 148 0.0 0.0 0.00 0.00 0.00 95 1019.2
20260505094734 56 148 0.0 0.0 0.00 0.00 0.00 95 1019.3
20260505094231 57 148 0.0 0.0 0.00 0.00 0.00 95 1019.1
20260505093727 56 148 0.0 0.0 0.00 0.00 0.00 95 1019.1
20260505093225 56 149 0.0 0.0 0.00 0.00 0.00 95 1019.3
20260505092721 56 148 0.0 0.0 0.00 0.00 0.00 95 1019.0
20260505092220 56 148 0.0 0.0 0.00 0.00 0.00 95 1019.1
20260505091717 56 149 0.0 0.0 0.00 0.00 0.00 95 1019.1
20260505091215 56 149 0.0 0.0 0.00 0.00 0.00 95 1019.0
20260505090712 56 149 0.0 0.0 0.00 0.00 0.00 95 1019.2
20260505090210 56 149 0.0 0.0 0.00 0.00 0.00 95 1019.0
20260505085708 56 149 0.0 0.0 0.00 0.00 0.00 95 1019.0
20260505085206 56 149 0.0 0.0 0.00 0.00 0.00 95 1019.4
20260505084703 57 149 0.0 0.0 0.00 0.00 0.00 95 1018.9
20260505084202 57 149 0.0 0.0 0.00 0.00 0.00 95 1019.3
20260505083658 57 149 0.0 0.0 0.00 0.00 0.00 95 1019.1
20260505083155 57 149 0.0 0.0 0.00 0.00 0.00 95 1019.0
20260505082651 57 149 0.0 0.0 0.00 0.00 0.00 95 1019.0
20260505082148 57 149 0.0 0.0 0.00 0.00 0.00 95 1018.9
20260505081644 57 149 0.0 0.0 0.00 0.00 0.00 95 1019.0
20260505081142 57 149 0.0 0.0 0.00 0.00 0.00 95 1019.1
20260505080638 57 149 0.0 0.0 0.00 0.00 0.00 94 1019.0
20260505080134 57 149 0.0 0.0 0.00 0.00 0.00 94 1019.1
20260505075631 57 149 0.0 0.0 0.00 0.00 0.00 94 1018.9
20260505075127 57 149 0.0 0.0 0.00 0.00 0.00 94 1019.0
20260505074624 58 149 0.0 0.0 0.00 0.00 0.00 94 1018.9
20260505074121 58 149 0.0 0.0 0.00 0.00 0.00 94 1019.2
20260505073619 58 149 0.0 0.0 0.00 0.00 0.00 94 1019.2
20260505073117 58 149 0.0 0.0 0.00 0.00 0.00 94 1019.3
20260505072612 58 149 0.0 0.0 0.00 0.00 0.00 94 1019.2
20260505072109 58 149 0.0 0.0 0.00 0.00 0.00 94 1019.3
20260505071604 58 149 0.0 0.0 0.00 0.00 0.00 94 1019.4
20260505071103 58 149 0.0 0.0 0.00 0.00 0.00 94 1019.2
20260505070600 58 149 0.0 0.0 0.00 0.00 0.00 94 1019.0
20260505070056 58 149 0.0 0.0 0.00 0.00 0.00 93 1019.2
20260505065552 58 149 0.0 0.0 0.00 0.00 0.00 93 1019.2
20260505065049 59 149 0.0 0.0 0.00 0.00 0.00 93 1019.2
20260505064545 58 148 0.0 0.0 0.00 0.00 0.00 93 1019.2
20260505064044 59 148 0.0 0.0 0.00 0.00 0.00 93 1019.3
20260505063541 59 148 0.0 0.0 0.00 0.00 0.00 93 1019.4
20260505063037 59 148 0.0 0.0 0.00 0.00 0.00 93 1019.6
20260505062533 59 148 0.0 0.0 0.00 0.00 0.00 93 1019.5
20260505062031 59 148 0.0 0.0 0.00 0.00 0.00 93 1019.4
20260505061528 59 148 0.0 0.0 0.00 0.00 0.00 93 1019.3
20260505061026 59 148 0.0 0.0 0.00 0.00 0.00 93 1019.3
20260505060523 59 148 0.0 0.0 0.00 0.00 0.00 92 1019.3
20260505060020 59 148 0.0 0.0 0.00 0.00 0.00 92 1019.6
20260505055515 59 148 0.0 0.0 0.00 0.00 0.00 92 1019.5
20260505055012 59 148 0.0 0.0 0.00 0.00 0.00 92 1019.6
20260505054509 59 148 0.0 0.0 0.00 0.00 0.00 92 1019.6
20260505054008 59 148 0.0 0.0 0.00 0.00 0.00 92 1019.8
20260505053504 59 148 0.0 0.0 0.00 0.00 0.00 92 1019.7
20260505053000 59 148 0.0 0.0 0.00 0.00 0.00 91 1020.1
20260505052458 60 148 0.0 0.0 0.00 0.00 0.00 91 1020.1
20260505051955 60 148 0.0 0.0 0.00 0.00 0.00 91 1020.0
20260505051452 60 148 0.0 0.0 0.00 0.00 0.00 91 1020.1
20260505050950 60 148 0.0 0.0 0.00 0.00 0.00 91 1020.2
20260505050448 60 148 0.0 0.0 0.00 0.00 0.00 91 1020.3